Theta_e
296 295 296 294 294 293 294 293 293 293 294 294 293 294 290 289 288 285 285 287 289 291 293 289 292 295 292 291 292 291 291 291 290 290 290 291 291 291 291 292 293 292 292 293 294 294 294 295 295 296 296 296 296 297 297 296 297 298 298 298 299 300 298 300 299 300 300 301 301 302 302 301 302 298
294 294 294 293 292 293 293 292 292 293 292 291 292 291 291 291 288 287 285 286 290 290 292 291 290 292 291 291 291 291 291 291 290 290 290 290 290 290 290 291 291 291 292 293 293 293 294 295 295 295 294 295 296 297 297 297 297 298 296 298 298 299 299 299 299 299 299 298 300 299 300 299 299 299
293 292 292 292 291 292 291 291 291 291 292 291 291 291 292 290 291 288 288 285 289 291 289 290 291 290 290 290 290 291 291 291 290 290 290 290 289 288 289 289 290 291 292 292 293 294 295 295 295 294 294 294 295 296 296 296 296 296 298 298 297 297 298 298 297 297 297 298 297 299 299 300 299 301
293 292 291 291 290 291 291 290 290 290 290 290 290 290 290 290 289 288 287 286 286 290 289 289 290 290 289 290 289 290 290 290 289 290 289 289 288 289 289 289 289 290 291 292 292 293 294 294 294 294 293 294 295 295 295 296 296 296 297 297 299 297 297 295 295 297 296 296 296 297 297 297 298 299
292 291 290 290 289 290 290 289 289 289 289 289 289 289 289 288 289 287 286 285 285 288 291 289 289 290 290 288 290 288 288 289 289 289 289 289 288 288 288 288 288 289 290 291 292 292 292 292 292 292 292 292 293 293 294 294 294 295 295 295 297 296 296 297 297 296 295 296 296 296 296 297 298 297
291 290 289 288 288 289 289 289 288 289 288 289 288 288 288 287 287 288 286 285 285 284 288 287 289 289 289 287 290 288 287 287 288 288 288 288 288 288 288 288 288 288 289 291 291 292 292 291 291 291 290 291 291 293 294 293 294 294 294 294 294 294 295 296 295 295 295 297 299 299 299 298 299 299
290 290 289 288 288 288 288 288 288 288 288 288 288 287 288 287 287 287 286 285 284 284 284 287 286 287 287 287 287 288 288 288 288 286 286 287 287 288 287 287 288 288 289 291 291 291 291 290 290 290 290 291 291 292 292 293 293 294 294 294 294 294 294 294 295 296 296 297 297 296 296 299 301 301
290 289 288 287 288 288 287 287 287 287 288 287 287 287 287 287 286 286 285 285 284 283 283 285 285 286 285 286 287 288 288 287 286 286 286 287 286 287 287 286 286 287 290 290 289 289 289 289 289 289 290 290 290 291 292 292 292 292 294 294 294 294 294 295 294 294 295 296 297 296 295 297 301 304
289 288 287 287 287 287 287 286 286 286 286 287 287 286 286 286 285 285 285 285 285 284 283 284 285 286 286 286 287 287 285 285 285 286 285 285 285 285 286 286 287 288 288 288 287 287 287 287 288 288 289 289 290 290 290 291 291 291 294 293 294 294 294 294 294 293 293 293 294 293 296 297 300 301
288 287 287 286 286 287 287 286 286 286 285 286 286 285 285 285 285 285 285 285 284 284 283 283 283 285 284 284 285 286 285 283 282 283 284 284 284 283 283 284 286 286 286 285 285 285 285 286 286 287 288 289 288 289 289 290 289 290 292 293 293 293 294 294 293 293 293 292 292 294 293 294 296 297
287 287 286 286 286 286 286 286 286 286 285 285 285 285 284 284 284 284 284 284 283 283 283 283 284 283 284 284 282 284 285 284 283 281 280 279 282 283 283 282 284 285 284 285 285 284 284 285 284 285 286 287 287 287 288 288 288 290 292 293 293 293 293 293 293 293 292 292 291 292 292 293 294 293
286 286 285 285 285 286 286 286 286 286 285 285 284 285 284 284 284 284 284 283 283 282 282 282 281 282 282 282 284 284 283 282 282 282 280 278 279 280 282 283 282 282 282 281 282 283 284 284 284 285 285 285 286 286 286 286 286 289 292 292 292 292 292 293 292 292 292 292 291 291 291 291 292 294
285 285 285 285 285 284 282 282 283 283 283 285 284 284 284 284 283 283 283 283 282 281 281 280 282 281 280 281 281 280 280 279 279 280 280 279 280 280 280 281 282 282 281 280 280 280 281 280 281 282 281 282 283 283 284 285 286 290 292 292 292 292 292 292 292 292 291 291 291 291 291 291 291 291
284 284 284 283 281 281 281 281 281 282 282 282 283 283 284 283 282 281 281 281 281 280 279 279 279 278 279 280 280 279 280 281 280 279 279 278 279 279 279 279 280 281 280 279 278 279 281 280 280 281 280 281 282 282 283 284 287 290 292 292 292 291 291 291 291 291 291 291 291 291 290 290 290 290
282 283 283 282 281 281 281 281 280 281 281 282 282 282 282 283 282 281 280 280 280 279 279 279 279 279 278 279 280 280 280 280 279 278 279 278 278 277 275 274 277 282 280 278 277 277 280 280 279 279 280 280 280 281 282 286 288 290 291 291 291 291 290 290 290 290 291 290 290 290 290 290 290 290
283 282 282 282 282 282 282 282 281 281 281 282 282 282 282 282 281 282 281 280 279 279 278 278 278 279 278 279 280 279 279 278 278 279 279 278 277 275 275 275 274 278 280 277 276 276 279 280 279 278 279 280 280 281 284 286 288 290 290 290 290 290 290 290 290 289 290 290 290 290 289 289 289 289
282 282 282 281 281 281 279 280 281 281 282 282 282 282 281 281 281 281 281 282 281 281 279 278 278 279 279 278 279 280 279 279 277 278 277 277 276 276 275 275 275 277 279 277 275 274 277 279 277 277 279 280 280 280 283 286 287 289 290 289 289 289 289 289 289 289 289 289 289 289 289 289 288 288
282 282 282 281 280 280 280 280 281 282 282 283 283 282 281 281 281 281 281 281 281 281 280 280 278 280 281 279 279 280 280 279 277 277 276 276 275 275 275 276 276 278 279 276 274 273 276 278 276 276 278 280 280 280 282 285 286 288 289 289 289 289 288 288 288 288 288 288 287 287 288 288 288 288
282 282 281 281 280 279 279 280 281 282 282 282 281 280 280 280 281 281 281 281 281 281 282 281 281 281 281 281 280 280 281 280 279 278 277 276 276 276 277 277 277 277 278 277 275 271 275 277 275 276 278 279 279 280 281 283 285 286 287 288 288 288 288 288 287 287 287 287 287 287 287 287 287 287
281 281 280 279 279 279 279 280 281 282 283 281 280 278 279 279 280 280 280 281 282 282 282 282 281 281 281 281 281 281 280 279 279 278 278 277 276 274 273 273 274 274 277 277 275 272 273 276 274 275 278 278 278 279 278 280 283 284 285 286 287 287 287 287 287 286 286 286 286 285 285 286 285 285
280 280 280 279 278 279 279 280 282 282 281 280 279 278 278 278 278 278 280 281 282 282 282 281 281 281 281 281 282 281 281 279 279 277 275 274 274 272 270 271 272 272 274 276 276 273 272 275 274 274 276 276 278 277 277 277 280 282 283 284 285 286 287 287 286 286 286 286 285 285 285 284 284 283
279 279 279 279 279 279 279 281 282 281 281 279 279 278 277 276 276 278 280 280 280 281 280 279 279 279 280 280 280 279 279 279 278 276 273 273 273 271 271 269 270 271 273 276 277 272 272 274 275 273 275 276 280 277 277 276 276 278 279 282 283 284 284 285 286 285 285 285 285 285 284 284 282 280
279 278 279 279 279 280 281 281 281 281 280 280 279 278 277 276 276 278 279 278 277 277 276 276 277 278 278 278 277 277 278 278 278 277 275 274 272 270 270 270 270 269 272 276 276 272 272 272 274 273 271 272 276 279 277 276 275 275 275 276 278 281 281 282 283 284 284 284 284 284 284 283 281 279
277 277 277 278 279 281 281 281 280 280 281 280 280 279 277 276 276 278 278 277 276 275 275 275 276 276 277 276 276 276 276 276 277 276 275 275 273 271 270 270 270 269 270 274 276 272 272 273 272 274 272 270 270 276 277 275 275 275 274 275 276 277 279 279 279 280 282 283 283 283 282 282 280 278
277 277 277 278 279 281 280 280 280 280 280 280 279 278 277 277 278 278 276 275 275 274 274 275 275 275 275 275 275 275 275 276 276 276 276 275 274 272 271 270 270 270 272 274 276 273 270 271 270 272 272 273 274 274 276 275 275 275 274 274 274 274 275 276 276 276 277 279 280 281 282 282 281 279
277 277 278 278 279 280 279 279 280 280 280 279 278 277 277 277 276 275 275 275 275 274 274 274 274 274 274 273 273 274 274 275 275 275 275 275 274 273 273 271 270 269 270 274 276 273 271 270 271 270 271 272 274 274 272 273 274 274 274 274 273 273 273 273 274 274 274 274 274 276 276 280 281 281
277 278 278 278 279 279 279 279 279 279 278 277 277 276 275 275 274 273 274 273 273 273 272 272 272 272 272 272 272 273 273 274 275 275 275 274 273 272 272 272 272 272 273 273 274 273 272 271 273 271 271 272 273 274 273 271 271 274 273 273 272 272 272 273 272 272 273 273 273 275 276 276 278 279
278 277 278 278 279 279 278 279 278 277 276 276 275 274 273 272 272 272 272 272 272 271 271 271 271 271 272 272 272 272 273 273 274 274 274 273 273 272 272 272 272 272 272 273 273 273 273 272 272 274 274 273 273 273 271 273 272 272 271 272 272 271 272 272 271 272 272 273 272 273 273 273 274 275
278 278 279 279 279 278 278 277 276 275 274 273 273 272 271 270 271 272 271 270 270 270 270 270 270 270 271 271 272 273 273 274 274 274 274 273 273 273 272 272 272 272 272 272 273 273 272 272 272 274 274 275 274 273 272 270 270 270 270 270 269 270 271 271 271 271 271 271 271 272 272 273 273 274
278 279 279 279 278 277 276 274 273 272 272 271 270 270 269 270 270 270 270 269 269 268 269 268 268 269 270 270 272 272 273 273 273 273 272 272 272 272 271 271 273 274 274 274 274 273 272 272 273 273 274 273 274 272 271 270 269 269 270 270 270 272 271 270 270 271 271 270 271 271 272 273 273 273
278 278 277 276 276 274 274 272 271 270 269 268 269 269 269 269 269 269 268 268 267 267 267 267 268 269 269 271 271 272 272 272 273 273 272 271 271 271 271 270 271 273 274 275 275 274 272 272 272 272 272 272 272 271 271 270 269 268 269 270 270 268 269 270 270 270 270 271 271 271 272 272 272 274
277 276 275 274 272 271 270 269 268 268 268 268 267 268 268 268 268 267 267 267 267 267 267 267 268 268 269 269 270 271 272 272 273 273 272 271 270 270 270 270 271 271 272 273 274 274 273 272 272 272 271 271 270 270 270 269 269 269 269 269 269 269 269 268 269 269 270 271 270 270 270 271 271 272
272 271 270 269 269 269 268 268 268 268 267 267 266 264 266 267 267 267 267 266 266 266 266 266 266 266 268 268 270 270 270 271 272 273 272 271 270 269 270 269 270 270 269 270 272 273 273 273 272 271 271 271 270 270 269 268 268 269 269 269 269 269 268 269 269 268 270 270 269 269 269 270 271 272
270 270 269 269 268 269 268 268 268 268 268 267 266 266 267 266 266 266 266 266 265 265 265 266 266 266 267 267 268 269 269 270 271 272 271 270 270 268 269 269 270 270 270 269 270 271 271 272 273 272 271 271 271 270 270 269 268 269 269 269 269 268 268 268 268 268 268 269 269 268 268 269 270 272
269 269 268 268 268 268 269 268 269 268 267 267 266 266 266 266 265 265 265 265 265 264 265 265 266 266 266 267 267 267 268 269 270 271 271 271 270 269 268 268 269 269 269 268 269 270 269 270 272 273 272 272 271 271 272 270 269 269 269 269 268 268 267 268 268 268 268 269 270 268 268 268 269 271
269 269 269 268 268 267 267 268 267 267 267 266 265 265 265 265 265 264 264 264 263 264 264 265 265 266 266 266 266 267 267 268 269 269 269 269 269 269 269 269 269 268 268 268 268 269 268 268 270 271 271 271 271 269 268 271 270 269 269 268 268 267 267 267 267 268 268 268 268 269 267 267 268 270
269 269 269 268 267 267 267 267 266 266 265 264 264 264 264 264 264 264 263 262 262 263 264 264 265 265 265 265 266 266 267 268 268 268 268 268 268 268 268 268 268 268 268 268 268 268 267 267 269 270 271 271 270 270 269 268 269 270 268 268 267 267 267 267 267 267 267 267 267 268 268 268 267 269
269 268 268 268 267 266 267 266 265 264 264 264 263 263 263 263 264 263 262 262 263 263 264 264 264 264 264 265 265 265 266 267 268 268 268 268 267 267 267 267 268 268 268 268 268 267 267 267 268 268 269 270 270 270 269 268 268 269 270 268 268 267 267 267 267 266 266 267 267 268 268 267 267 269
269 267 267 267 266 266 265 265 264 264 263 263 262 262 262 263 263 262 262 262 263 263 263 264 264 264 264 264 265 265 265 265 266 267 267 267 267 266 266 267 267 268 268 267 268 267 267 266 266 266 267 267 269 269 270 269 267 268 269 269 268 267 267 267 267 266 266 266 266 267 268 269 270 272
268 268 267 267 266 265 265 265 264 264 262 262 262 262 262 262 262 262 262 262 262 262 263 263 263 263 264 264 264 264 265 265 266 266 267 267 267 267 266 267 266 267 266 267 266 267 267 266 265 265 265 266 267 268 269 269 268 269 269 270 270 269 268 267 266 266 266 266 266 266 266 267 266 268
267 267 266 266 266 265 264 264 263 263 262 262 261 262 262 261 261 261 262 262 262 262 262 263 263 262 263 263 263 264 263 264 266 266 266 266 266 266 266 265 266 266 265 266 266 266 266 266 265 266 265 267 268 269 268 267 266 266 267 268 270 270 269 268 267 267 266 265 265 266 265 265 265 266
266 266 266 266 265 265 264 263 263 262 262 261 261 261 260 260 260 261 261 261 261 261 261 262 262 262 263 263 263 264 263 264 265 265 265 265 265 265 265 266 266 266 265 265 266 266 267 266 265 265 267 267 267 266 266 266 266 266 266 267 268 270 270 269 269 269 266 266 265 264 264 264 264 264
266 266 266 265 265 264 264 262 262 261 261 261 261 261 260 260 260 260 261 261 261 261 262 262 263 263 262 263 263 263 263 263 264 264 264 265 265 264 265 265 266 265 265 265 266 266 266 266 266 267 267 267 267 266 265 266 266 265 265 266 267 268 269 270 270 269 269 269 269 268 266 266 265 264
265 265 266 264 263 263 262 262 261 261 261 261 260 260 260 260 260 260 261 261 261 261 262 262 262 262 262 262 262 262 263 264 264 264 264 264 264 264 264 265 265 265 265 265 265 266 267 266 266 266 266 266 267 266 266 265 265 266 266 265 265 266 266 267 269 270 271 271 271 272 272 271 271 270
265 265 265 263 262 262 261 261 260 260 260 260 260 260 260 260 260 260 260 261 261 262 262 262 262 262 262 262 262 261 263 264 264 264 264 264 265 265 265 265 265 265 265 266 265 265 266 266 266 266 265 266 265 265 265 265 265 264 264 263 263 264 265 264 265 266 267 267 269 270 272 272 271 270
Wind_Speed
5 5 4 4 4 3 3 2 2 1 1 0 0 0 1 1 4 7 8 7 6 3 0 4 1 0 5 7 7 8 8 8 10 11 10 10 10 11 20 24 22 20 22 25 26 28 30 32 34 34 33 34 35 36 38 39 40 40 40 41 42 42 42 41 41 40 41 41 41 40 41 42 39 40
5 5 4 4 4 3 3 3 2 1 1 1 1 0 0 1 2 3 6 8 4 6 4 4 5 6 8 7 8 8 8 9 11 11 11 10 10 17 23 20 19 20 24 26 27 30 32 33 33 32 32 33 35 36 38 39 40 41 41 41 41 41 41 40 40 41 41 42 42 43 42 43 43 43
5 5 5 4 4 4 4 3 3 2 2 1 1 1 1 1 1 2 3 6 2 3 8 5 6 9 10 9 9 8 8 9 10 11 11 11 14 19 15 17 19 20 23 24 27 31 32 32 31 32 33 34 36 37 38 39 40 41 42 43 41 40 41 41 42 42 42 42 44 44 45 44 43 42
5 5 5 4 4 3 3 3 2 2 2 1 1 1 1 1 1 2 4 6 10 5 7 7 7 9 10 11 10 10 8 9 11 12 11 12 15 11 12 14 18 20 24 26 28 30 31 31 31 32 34 35 37 37 37 38 39 39 41 42 42 42 41 38 38 39 39 40 42 44 45 45 43 43
4 4 5 5 3 2 3 3 2 2 2 1 1 1 1 1 1 1 3 6 10 7 2 6 7 9 9 9 9 12 12 11 11 12 12 13 12 12 11 12 16 19 24 26 28 29 30 31 32 33 33 35 35 35 36 37 39 41 41 42 42 41 38 36 35 38 38 42 42 41 41 41 43 45
3 4 6 5 4 2 3 2 2 2 1 1 1 1 0 1 0 1 3 5 6 11 7 7 7 7 8 10 8 11 15 14 13 14 12 10 11 11 12 12 12 20 25 28 27 27 28 29 31 33 33 33 33 34 35 37 38 39 40 40 39 36 35 35 37 36 34 34 35 42 44 41 34 33
5 5 5 4 3 2 3 2 2 1 1 0 0 0 0 1 1 2 3 4 7 8 10 7 8 8 9 9 12 12 11 13 13 14 13 12 11 12 14 14 11 15 22 26 27 28 28 29 31 32 31 31 32 33 35 36 37 38 39 34 29 28 28 27 29 33 36 39 42 46 49 45 36 31
5 6 5 4 4 3 3 2 2 1 0 0 0 0 1 1 2 2 3 4 5 7 10 8 8 9 10 9 10 10 10 12 13 12 13 13 12 13 14 15 15 17 25 25 26 28 29 29 28 29 29 30 31 32 34 34 36 38 31 30 31 30 31 32 35 36 38 40 42 48 51 46 41 33
6 5 5 5 4 3 3 3 2 1 1 1 0 1 1 1 2 2 3 4 4 7 9 11 7 8 8 8 9 10 12 14 13 12 11 12 13 14 14 12 12 19 23 21 23 26 28 28 29 28 28 29 29 31 32 33 35 34 28 31 32 32 31 32 33 33 37 39 43 43 51 52 49 48
5 5 5 4 4 3 3 3 2 2 1 1 1 0 1 1 2 3 4 4 5 6 8 9 11 8 9 10 8 9 10 13 15 16 15 13 11 15 17 13 11 11 13 14 14 15 19 23 27 28 28 28 28 29 30 31 34 30 28 29 29 32 33 33 34 35 36 39 42 45 46 50 53 52
5 5 5 4 3 3 3 3 2 2 2 1 0 1 0 2 2 3 4 4 5 6 7 8 8 9 8 8 11 9 10 10 11 14 16 17 16 14 13 16 14 12 13 15 18 17 17 20 18 22 25 26 28 30 29 28 34 27 27 28 30 31 32 33 33 35 37 38 41 40 45 46 50 45
5 5 5 4 3 3 2 2 2 2 1 1 1 1 0 2 3 3 4 4 5 5 6 7 9 8 10 10 8 8 9 11 11 9 11 15 17 18 17 14 15 13 13 15 15 14 15 17 19 21 22 24 28 29 27 28 33 25 26 28 30 31 31 32 33 34 36 38 39 39 40 43 43 44
6 5 5 4 4 4 5 6 4 4 2 1 1 1 1 2 3 4 4 4 4 5 6 7 7 8 9 8 10 11 11 12 12 13 12 13 14 14 16 13 9 10 13 13 14 13 12 14 14 14 14 15 22 22 26 23 30 24 27 28 29 30 31 31 33 33 34 35 37 38 39 39 42 41
6 5 5 5 7 6 5 5 4 4 3 2 2 1 2 2 3 4 4 4 4 5 6 7 8 9 8 9 10 11 12 12 12 12 12 13 14 14 15 14 7 8 11 14 14 13 11 13 14 12 13 13 15 14 15 19 25 23 27 28 27 29 30 32 33 33 32 34 35 35 38 37 38 42
7 6 6 6 6 6 5 4 3 2 3 3 2 0 2 2 3 3 4 4 4 5 6 7 7 8 11 10 10 11 12 11 11 12 12 12 12 13 14 17 16 8 15 15 15 14 11 12 14 13 12 13 13 14 15 29 30 25 26 27 27 28 29 29 30 31 32 33 33 34 35 37 39 39
6 6 6 5 3 2 3 3 4 3 2 1 0 1 2 2 3 4 4 4 4 5 6 7 7 8 9 11 10 10 11 12 13 12 11 10 11 12 12 12 13 13 14 14 13 14 11 12 12 12 11 12 11 13 22 30 29 26 26 26 26 27 27 29 29 30 32 32 33 34 34 35 36 38
6 6 5 5 4 4 4 3 2 2 2 6 5 1 2 3 3 5 6 6 5 5 6 7 8 8 10 11 10 10 12 13 13 13 11 10 10 10 11 11 13 15 13 13 12 13 12 12 13 12 11 11 11 13 19 29 28 28 26 26 25 26 26 27 28 28 28 30 31 32 33 34 36 35
6 6 6 6 5 5 4 4 3 2 1 0 1 2 2 2 3 4 5 5 7 6 6 7 8 10 9 10 11 12 11 12 12 12 13 13 12 11 11 13 13 13 11 11 12 12 11 11 12 12 12 11 11 10 18 25 27 27 28 26 25 25 25 26 26 27 27 28 28 29 31 32 34 35
5 5 5 5 5 5 4 4 2 1 1 1 1 1 2 3 3 3 3 3 4 4 5 7 9 10 10 10 11 11 11 10 10 10 12 13 13 12 12 11 10 9 8 9 9 9 13 11 11 11 11 11 11 8 14 22 25 26 25 27 25 24 25 25 26 26 26 26 25 26 28 30 32 34
5 4 5 5 5 5 4 5 3 0 1 1 1 2 2 3 4 4 4 6 7 7 7 7 8 9 10 13 12 11 11 10 9 10 10 10 9 11 10 10 9 9 8 9 7 8 11 10 10 11 11 10 8 8 9 17 23 24 23 24 26 26 25 26 26 27 27 27 25 24 24 25 27 30
5 4 5 5 5 5 4 4 2 1 0 1 2 2 3 3 4 5 4 5 7 8 10 12 13 14 15 14 15 15 15 11 10 9 9 8 9 10 10 10 8 10 10 7 5 8 10 10 10 11 10 10 6 7 10 11 17 22 22 22 24 25 25 25 26 27 26 26 26 26 26 25 22 24
4 5 7 6 5 5 4 5 2 2 2 2 2 3 4 4 4 4 3 3 5 8 10 11 12 12 12 12 12 13 12 12 10 7 8 9 8 9 8 10 10 10 9 4 7 9 8 10 9 10 10 9 1 5 7 10 12 16 15 20 22 24 23 24 25 25 26 26 25 25 23 22 21 16
4 5 6 7 6 5 4 4 3 3 3 3 3 4 4 5 5 4 3 5 6 6 6 6 6 6 7 7 7 7 11 11 9 6 7 7 7 8 8 9 10 9 4 4 9 9 9 9 9 7 9 5 4 4 7 9 9 9 9 10 11 21 21 22 23 24 25 26 26 27 26 23 16 12
5 5 5 6 9 8 6 5 5 4 4 3 3 4 4 5 5 4 5 5 5 5 6 6 6 6 6 6 6 6 6 6 6 6 6 6 7 7 8 8 7 8 7 5 10 9 10 7 8 6 4 5 5 6 7 8 9 8 8 9 8 14 16 16 15 20 22 24 26 27 28 28 21 11
6 6 5 5 9 8 6 6 6 5 4 4 4 4 5 4 5 6 5 5 5 5 5 5 5 4 4 5 5 5 5 5 5 5 7 6 6 7 7 7 7 8 9 8 12 9 6 7 9 7 5 4 6 5 3 6 7 8 8 8 8 9 9 9 8 9 13 18 21 24 26 26 28 18
5 6 6 6 9 9 7 7 6 5 5 4 4 4 4 5 6 4 4 3 3 3 3 3 3 3 3 4 4 5 5 5 6 6 6 6 6 7 7 7 7 8 9 9 14 8 7 7 6 6 6 5 5 3 3 4 5 7 7 7 7 8 8 8 8 9 9 8 10 13 16 23 24 25
6 6 6 6 10 9 9 8 7 6 5 5 4 3 2 3 4 3 2 2 2 2 3 3 3 3 3 3 4 4 5 6 6 7 7 6 6 7 7 7 7 8 8 8 9 8 7 7 7 6 6 6 7 3 3 3 4 6 5 7 7 7 8 7 8 8 9 9 9 15 14 17 18 22
6 6 7 7 12 10 9 8 7 6 4 3 3 1 0 1 1 1 2 2 1 2 2 3 3 3 3 3 4 4 5 6 7 7 7 6 5 6 7 6 6 6 7 6 7 7 7 7 8 7 7 5 5 4 2 1 2 4 5 4 5 7 7 7 7 8 8 9 8 9 9 9 10 9
6 7 10 11 11 10 9 9 8 5 4 2 1 1 2 1 1 1 1 1 2 2 2 3 3 3 3 3 5 5 6 7 7 6 6 5 5 5 7 7 6 5 4 4 5 6 6 6 6 6 5 4 3 2 1 1 2 3 5 4 3 6 6 6 6 6 7 8 8 9 9 9 9 9
9 12 12 12 11 9 8 5 4 3 2 2 2 3 3 0 0 1 1 1 2 3 2 3 4 3 3 4 5 6 6 5 5 4 6 6 5 4 4 4 3 4 2 1 3 4 5 4 4 5 3 2 2 1 1 0 1 2 3 3 2 2 5 5 5 5 7 7 7 7 8 9 10 10
9 10 9 8 8 6 7 6 5 4 3 2 1 1 1 0 0 1 1 2 3 3 2 3 3 3 4 5 5 4 4 4 4 3 4 4 5 5 5 5 4 2 2 1 2 2 4 4 4 4 3 1 2 2 2 1 1 1 2 2 2 1 3 4 4 5 5 5 5 5 7 8 8 9
10 9 9 9 6 5 4 4 2 2 2 1 1 1 1 1 0 2 2 3 2 2 2 3 3 4 4 4 4 4 4 4 4 3 3 4 5 5 5 4 3 2 3 2 2 2 3 3 3 2 3 2 1 1 2 2 1 1 1 1 2 2 2 3 4 4 5 4 4 6 6 7 7 7
7 7 6 5 5 5 5 4 3 3 3 2 2 1 1 1 1 2 1 2 1 1 2 2 3 3 4 4 3 4 4 4 4 4 4 4 4 5 4 4 4 3 4 4 3 2 2 2 3 3 3 3 3 2 1 1 1 0 0 1 1 1 2 3 3 4 5 3 4 4 5 6 7 7
6 7 6 6 6 6 5 5 4 4 4 4 3 3 3 2 1 1 1 1 1 1 2 2 3 3 4 4 3 4 4 5 4 4 5 5 4 4 4 4 3 3 3 4 3 2 3 2 1 1 3 4 4 4 3 0 1 0 0 0 1 1 2 2 2 3 4 3 2 3 4 4 6 7
6 7 7 6 5 5 5 5 5 4 5 5 4 4 3 3 3 3 2 1 1 2 1 2 3 3 4 4 4 4 5 5 5 5 4 4 4 4 4 4 4 3 3 3 3 2 3 3 3 4 4 3 1 3 5 3 0 1 0 1 0 1 1 2 2 2 3 3 2 3 3 4 5 5
6 6 6 6 6 6 6 5 4 4 4 4 4 4 4 4 3 3 2 1 1 1 1 2 3 3 4 4 4 4 5 5 5 5 5 4 5 5 4 4 4 3 3 3 3 2 3 3 3 4 5 4 4 4 1 5 4 1 1 1 1 0 0 1 2 1 2 2 2 1 2 3 3 4
6 6 6 5 5 6 5 5 5 5 4 4 4 4 4 4 3 3 2 1 2 2 2 2 3 3 4 4 4 5 5 5 5 4 5 5 5 5 5 4 3 3 3 2 2 2 2 2 2 3 5 5 5 6 1 2 2 3 1 0 1 0 0 0 0 1 1 1 1 2 2 2 2 3
6 5 6 5 5 6 4 5 5 5 5 5 4 4 4 3 3 3 3 3 2 2 2 2 2 3 4 4 3 4 4 5 5 5 4 4 5 5 5 5 5 3 3 3 1 1 1 2 2 2 3 5 6 6 3 2 2 1 2 1 0 1 0 0 0 0 1 1 1 1 1 2 1 1
6 6 7 6 6 6 6 6 6 6 5 5 5 5 5 4 4 3 3 3 2 2 2 2 3 3 4 4 4 4 4 4 4 4 4 4 4 5 5 5 5 4 4 3 1 1 0 1 2 2 2 3 4 4 5 1 1 1 1 1 1 0 1 1 0 1 0 1 1 1 1 1 2 4
8 6 6 6 5 5 5 5 5 5 5 5 5 5 5 5 4 4 4 3 3 3 3 3 3 3 4 3 3 4 5 6 6 5 4 4 5 5 5 4 5 5 4 3 2 1 0 1 2 3 3 4 4 4 3 1 1 1 1 1 1 1 0 1 1 1 1 1 0 1 1 1 0 0
7 7 6 6 6 6 6 6 6 6 5 5 4 5 4 4 4 4 4 4 3 3 3 3 3 3 3 3 3 3 5 5 5 5 4 4 5 5 6 6 5 3 3 4 2 1 0 1 1 6 6 5 3 3 2 2 1 1 1 0 3 2 1 2 1 1 0 2 1 0 1 0 0 1
7 7 5 5 7 6 5 6 6 6 5 5 5 5 5 5 4 5 4 5 5 4 3 3 4 3 3 3 3 4 4 5 5 4 4 4 5 6 6 5 4 4 3 3 2 2 1 0 1 2 2 2 2 2 3 2 2 0 0 0 1 2 1 1 3 3 1 2 1 1 1 1 1 2
8 7 7 5 5 5 5 5 5 5 5 5 5 5 5 5 4 5 4 4 4 4 4 4 3 3 2 2 3 4 4 5 5 4 5 5 5 5 5 5 5 5 4 4 3 2 2 1 1 1 2 2 2 2 4 3 1 1 1 1 1 1 2 2 2 3 5 5 4 3 1 2 1 1
8 7 6 5 6 6 5 6 6 6 6 5 5 5 5 5 5 5 4 4 4 4 4 4 4 3 2 3 3 4 4 4 4 4 5 5 5 5 6 6 6 5 5 4 3 3 2 1 1 1 2 2 2 2 4 3 2 2 1 1 0 1 1 1 1 2 2 4 8 9 4 7 5 5
7 7 6 6 6 6 6 5 5 5 5 5 6 6 5 5 4 4 4 5 4 5 5 5 4 3 3 3 3 4 4 4 4 5 4 5 5 5 6 6 5 5 4 4 3 3 2 2 1 1 2 2 1 2 3 2 2 1 1 1 2 1 1 1 1 3 2 2 1 8 12 5 1 1
Wind_Direction
130 122 133 127 131 130 128 128 136 138 159 143 27 337 336 320 310 330 323 331 329 326 28 339 287 160 341 329 325 317 314 314 319 316 313 312 311 316 315 312 313 318 329 334 336 334 330 328 330 330 328 325 324 322 322 321 320 319 315 314 311 313 312 312 310 309 307 303 301 300 298 295 292 290
123 126 130 133 126 131 132 118 129 140 132 150 151 153 241 279 302 311 312 308 307 306 326 317 309 321 326 327 318 309 307 312 315 317 313 314 319 317 308 311 318 324 334 339 337 333 330 330 332 331 328 327 325 324 323 322 320 318 317 315 316 314 314 314 313 311 309 307 304 301 297 293 291 290
132 136 133 130 122 127 128 135 138 145 166 142 170 175 197 237 250 285 275 301 294 9 315 318 323 320 323 322 313 312 313 317 314 318 321 319 320 309 317 326 326 327 336 338 336 331 331 333 334 331 330 328 326 325 324 323 322 322 320 318 316 317 317 318 317 315 311 309 306 302 298 294 292 289
139 139 132 128 128 138 142 137 129 126 109 139 169 185 211 201 240 265 263 265 278 310 302 308 317 322 321 321 319 320 321 319 321 330 324 323 318 321 326 327 329 330 336 338 335 334 335 336 334 331 330 329 327 327 327 326 325 323 321 320 319 318 318 318 316 314 313 310 307 302 297 293 289 285
136 132 120 114 113 134 144 131 140 130 134 165 178 173 225 230 200 269 277 279 290 296 295 309 314 321 321 320 328 325 325 325 328 328 327 327 329 326 329 330 330 335 337 337 336 336 337 338 335 332 330 329 329 329 330 330 328 327 325 324 324 323 323 323 322 318 318 319 320 322 320 307 293 284
131 126 119 119 123 126 121 128 135 137 159 183 178 187 225 306 302 308 296 288 290 299 316 316 320 317 331 317 333 332 327 327 330 330 330 330 331 329 329 332 334 338 337 336 337 337 338 337 333 330 330 332 333 334 334 334 333 331 332 330 326 325 325 324 324 327 329 332 340 344 339 330 317 305
134 123 121 130 138 151 141 131 118 130 148 172 151 20 328 323 322 305 302 300 299 306 308 313 318 329 330 327 327 330 324 321 326 325 330 333 335 335 333 332 330 335 336 335 337 338 338 335 332 331 333 336 337 337 338 336 335 333 333 335 342 345 347 345 352 356 355 354 353 350 345 338 327 298
135 130 130 143 155 155 135 136 137 131 132 193 117 46 350 299 310 310 288 287 289 302 305 314 324 324 325 325 326 323 322 326 327 328 326 329 332 335 336 333 333 334 336 339 340 338 334 332 333 333 334 338 339 339 339 340 337 338 345 11 11 13 11 10 9 2 2 360 358 358 353 353 2 352
126 131 134 143 149 152 143 155 163 137 169 141 112 4 335 317 315 289 288 291 294 298 299 305 314 318 317 319 323 333 335 331 328 328 329 331 329 331 334 333 331 327 331 341 343 335 333 335 336 335 336 339 340 341 340 341 340 336 -0 13 12 9 10 10 9 6 5 4 3 5 4 9 23 33
125 133 133 136 142 157 166 154 149 156 141 122 96 35 349 327 301 298 298 297 301 298 297 306 313 326 328 325 327 340 341 333 331 330 330 328 331 335 334 333 334 338 334 339 339 335 334 335 333 334 336 338 340 340 339 341 341 342 11 11 10 11 11 12 11 10 9 9 9 12 10 14 21 33
124 126 127 129 138 147 150 153 151 145 152 134 131 114 343 305 312 306 311 308 308 307 309 310 313 316 321 323 321 336 337 332 335 333 333 330 331 332 333 331 334 339 335 336 335 336 331 332 335 335 336 339 341 341 339 339 343 338 13 13 13 12 12 12 12 13 13 14 14 15 19 20 21 24
123 122 123 126 129 135 143 144 129 134 145 162 178 121 353 325 326 318 316 315 317 318 320 319 318 320 318 320 319 324 333 334 334 344 332 323 325 326 329 334 332 333 342 340 335 337 337 338 339 338 338 342 342 341 340 340 341 339 15 14 14 15 15 14 13 15 17 19 20 20 23 26 25 25
126 126 122 128 121 97 84 70 70 70 43 222 139 22 13 341 332 326 318 314 318 322 321 314 316 315 317 318 325 332 337 337 332 330 330 319 319 320 319 326 333 333 340 339 330 332 340 338 338 337 337 341 341 339 339 341 341 353 18 16 15 16 16 17 17 18 19 20 22 24 26 27 28 28
130 130 124 110 109 115 101 95 102 111 100 63 28 14 340 336 330 312 311 312 320 319 312 313 317 315 315 320 326 322 322 325 326 326 329 324 324 324 323 316 338 344 348 339 334 329 340 339 333 339 338 339 342 338 340 345 341 8 16 18 17 16 17 19 20 23 23 24 25 25 28 29 28 31
141 138 138 138 140 135 134 119 113 126 136 126 111 38 343 331 315 302 300 303 308 307 304 304 307 305 309 313 320 318 322 326 328 325 324 321 325 331 332 326 323 350 348 339 333 325 338 339 337 335 335 339 340 338 338 343 347 11 16 18 18 18 19 18 22 23 26 29 30 30 31 32 33 34
145 149 150 145 141 133 126 148 154 160 195 196 170 312 306 297 293 289 284 291 297 299 298 298 298 304 306 313 316 320 327 325 323 321 320 322 327 325 323 318 316 321 337 332 329 320 328 335 337 331 331 337 336 331 340 347 349 5 18 19 19 21 20 21 22 24 26 26 29 34 36 36 36 37
149 151 150 146 146 134 158 179 172 181 188 196 218 270 244 258 272 281 284 286 288 289 287 290 294 299 309 310 314 323 321 319 314 319 319 324 323 317 310 311 313 315 331 327 327 320 324 337 336 331 330 337 336 336 342 352 353 5 18 19 22 22 23 23 24 26 29 31 30 31 36 38 40 39
150 157 157 154 156 157 167 163 176 176 191 228 256 261 303 295 278 270 271 274 274 276 277 285 289 298 306 305 310 315 316 315 317 320 317 321 317 313 307 308 303 307 327 331 326 313 322 338 333 329 330 335 339 341 343 356 1 3 9 21 21 24 25 25 25 24 26 29 31 34 37 40 42 42
147 151 150 150 151 157 165 156 153 174 239 276 266 302 296 294 288 292 283 294 301 288 285 287 293 300 304 304 306 307 311 312 316 317 310 311 306 306 307 300 303 309 327 333 324 314 318 330 329 324 327 331 336 348 336 354 2 5 8 13 20 25 26 28 28 26 25 27 27 35 38 41 43 44
147 150 152 152 158 163 158 157 187 229 308 242 229 272 279 279 287 282 283 281 278 278 285 291 296 299 299 300 300 304 310 315 314 312 307 302 309 315 312 312 319 316 330 329 322 318 312 322 326 318 323 327 331 348 349 347 358 3 9 13 15 22 29 31 35 32 32 32 33 32 32 36 41 46
150 156 163 164 165 167 159 167 201 130 291 181 216 255 264 273 279 278 274 273 276 281 289 294 296 297 297 298 301 305 311 312 315 314 310 314 325 315 314 314 321 318 326 318 349 325 308 324 324 317 321 317 321 4 1 352 354 1 6 11 17 17 24 34 35 35 34 33 35 39 38 38 36 38
157 162 172 175 172 168 161 179 193 170 170 183 215 241 257 266 268 272 269 281 281 287 293 298 297 295 294 299 304 306 307 311 315 314 312 318 319 309 309 309 317 313 311 333 8 325 312 319 322 319 320 306 10 28 10 1 348 354 355 360 12 17 19 24 36 38 36 35 32 32 32 38 40 41
164 168 179 191 189 175 170 184 186 187 188 193 216 229 243 251 257 262 284 285 290 295 304 304 305 300 300 304 303 300 301 304 307 311 312 314 314 308 307 308 313 315 316 -0 356 327 317 320 316 335 330 332 327 27 22 6 352 353 348 357 3 7 14 21 25 32 39 39 36 34 33 31 33 41
177 178 181 188 196 182 185 187 192 195 199 202 219 223 231 241 252 280 290 281 286 293 292 293 291 290 294 294 296 295 297 299 299 308 312 310 307 304 299 298 295 290 295 317 341 326 308 308 309 324 298 301 310 339 2 9 5 357 352 354 4 1 3 10 18 22 29 36 38 39 38 36 31 34
173 175 183 186 189 186 188 190 196 194 191 199 202 212 223 248 279 295 277 276 282 277 278 281 281 281 286 290 291 296 295 300 306 308 307 301 304 302 295 293 288 278 286 303 328 326 306 309 300 310 312 297 286 315 354 6 9 11 358 360 4 3 356 2 7 11 17 28 33 36 38 41 39 37
177 179 179 181 181 184 187 191 194 188 185 181 193 212 256 285 293 290 269 259 265 265 269 275 273 269 279 283 292 297 299 301 307 307 303 305 306 299 287 280 280 282 290 310 319 314 305 300 298 307 303 303 300 334 334 344 8 -0 358 4 10 4 1 1 5 8 11 16 24 30 34 38 44 45
174 178 177 173 173 179 185 188 185 173 161 180 194 218 262 289 296 276 241 258 255 256 269 266 259 266 268 277 290 293 299 305 306 305 305 305 302 294 283 277 267 266 283 300 307 306 295 282 290 286 285 290 293 298 1 344 345 353 359 12 7 5 4 4 11 8 6 10 15 18 30 32 38 48
175 174 178 171 174 177 177 174 161 150 162 182 171 161 349 330 286 246 241 238 254 256 250 252 265 258 268 276 281 290 301 304 301 297 297 302 290 277 291 282 268 258 263 278 298 305 294 283 289 290 291 272 277 298 303 6 349 355 350 0 12 8 5 8 11 12 8 9 10 15 19 22 23 20
181 178 168 166 168 171 171 153 144 153 158 155 168 86 62 48 230 236 232 243 254 248 232 245 257 255 257 271 277 285 293 292 289 293 305 301 281 273 265 262 256 259 260 261 296 315 302 290 294 306 310 314 283 303 313 297 344 350 353 344 6 6 5 10 16 18 13 10 10 14 16 14 17 25
176 171 166 163 163 157 155 151 157 156 141 139 86 81 73 132 231 245 231 237 239 241 248 252 257 269 279 280 282 283 279 281 290 304 312 315 314 318 310 301 262 219 244 281 324 338 324 318 321 321 314 354 0 70 69 106 11 7 350 357 325 322 17 8 13 16 17 15 10 9 15 20 22 21
178 169 163 160 160 167 164 139 133 127 128 155 174 153 111 100 248 256 246 240 245 258 260 266 275 283 285 284 277 278 288 287 292 310 311 312 316 318 313 299 282 297 326 325 331 5 351 337 343 352 344 359 49 48 48 50 68 0 4 5 358 48 349 1 17 16 7 14 13 18 21 25 27 24
168 162 154 146 145 145 144 148 146 159 169 164 182 177 143 133 279 271 260 243 237 250 268 279 284 285 281 278 285 288 289 288 295 311 315 319 318 315 308 298 301 313 304 324 327 1 21 4 1 22 32 11 54 69 61 55 80 64 34 25 37 35 9 4 7 6 2 -0 24 28 25 26 25 31
132 133 140 147 161 177 176 170 172 171 182 184 155 161 206 170 188 222 247 242 258 272 286 280 283 283 280 282 288 292 293 296 302 311 316 316 317 307 294 288 300 316 322 317 321 328 353 22 38 36 50 55 39 2 264 144 85 8 45 14 16 20 8 11 3 359 342 14 39 31 35 29 27 33
148 163 166 175 177 176 178 179 180 184 185 183 182 180 182 184 190 215 238 253 256 288 288 286 288 288 290 286 296 299 299 299 303 307 307 307 312 305 305 303 302 312 305 305 310 321 330 302 215 120 93 74 65 43 356 288 136 122 45 15 12 15 12 353 11 0 352 352 12 47 36 31 35 31
176 172 178 181 181 181 178 183 183 179 183 185 176 177 180 184 183 207 223 234 269 272 271 281 280 284 283 285 295 299 298 299 303 306 305 301 298 299 297 297 303 311 313 307 309 327 330 314 284 257 237 209 174 83 58 27 270 143 170 66 29 14 6 7 350 4 359 344 9 56 60 49 35 19
195 187 182 178 184 178 183 187 170 183 188 177 172 171 178 188 181 188 209 231 265 264 270 270 281 281 280 284 292 294 292 293 293 297 305 304 301 303 292 285 287 295 301 300 311 321 327 308 288 272 266 254 253 256 184 62 45 313 295 169 87 60 20 20 358 354 4 356 359 15 71 60 46 23
192 193 192 184 176 179 186 170 175 184 181 175 175 180 180 179 182 185 169 285 251 247 251 270 277 281 281 285 291 289 286 284 286 293 295 299 300 301 300 293 289 289 292 303 311 308 316 304 303 276 268 265 257 261 214 132 61 46 307 270 144 96 30 339 288 22 27 4 25 38 81 87 75 34
199 186 195 193 182 186 178 170 169 176 184 183 176 175 180 179 178 176 182 211 225 234 249 251 268 275 274 283 287 289 287 284 282 280 283 292 297 302 305 304 303 299 300 296 301 311 304 298 299 308 284 270 268 268 260 150 179 135 49 305 231 123 101 256 233 135 67 18 55 56 84 107 62 2
196 184 194 190 188 178 180 180 174 180 177 177 178 178 176 177 175 181 198 199 203 216 238 247 251 258 272 277 282 281 281 279 278 276 281 286 291 296 299 303 303 303 305 303 319 317 335 316 319 319 294 278 287 333 335 275 179 119 90 62 13 122 186 259 249 132 165 149 106 59 66 345 321 358
206 196 198 187 183 177 178 170 175 177 173 180 176 177 172 175 177 182 189 192 191 215 227 234 241 258 261 265 272 276 276 267 264 268 274 282 286 289 289 297 297 300 297 294 307 325 5 340 329 324 312 301 306 304 315 15 84 144 140 96 0 283 288 200 216 188 180 159 126 200 169 189 222 0
194 197 203 189 185 181 178 175 169 170 177 174 168 172 176 176 178 189 186 185 186 202 220 230 233 240 248 260 266 270 272 277 275 275 281 286 285 284 289 291 283 285 289 292 284 284 327 45 321 293 272 271 277 279 249 222 219 182 185 107 12 358 224 233 254 217 198 146 210 237 218 206 90 231
195 207 193 183 187 188 171 164 166 167 170 168 171 177 177 180 194 187 187 197 202 211 222 226 229 229 243 252 261 266 267 272 278 283 288 291 294 293 284 273 279 291 286 281 298 300 348 78 255 255 260 265 273 287 270 280 292 284 245 291 35 16 20 232 232 246 233 175 176 196 192 174 191 234
206 205 201 189 174 173 171 163 162 163 168 168 175 177 175 184 180 189 196 187 189 198 208 217 220 222 237 254 261 266 267 269 275 282 286 288 287 287 287 283 282 287 275 271 280 276 270 238 236 267 273 260 264 275 285 295 268 238 214 215 148 79 52 60 151 159 174 205 259 284 301 318 278 282
200 199 198 178 181 176 170 168 167 166 168 170 171 173 182 184 188 192 186 186 187 195 206 212 213 214 228 246 258 263 259 263 279 281 285 285 284 282 281 284 281 277 278 272 275 278 269 259 247 256 265 261 260 266 273 271 253 222 212 175 212 215 153 15 73 126 138 92 40 9 271 233 288 286
198 195 183 179 179 172 168 165 158 163 165 168 173 182 186 191 192 187 190 189 190 197 206 208 205 210 224 236 244 252 261 281 281 278 282 283 281 281 279 279 280 278 276 278 276 277 262 283 267 228 250 250 246 253 269 262 266 192 193 181 206 191 180 356 250 188 203 221 13 358 5 16 16 25